Location: Dover
(48.8500°N, 53.9833°W)
Time: 16:57:30
(UTC+00:00)

Cosmos 2082 Rocket - Pass Details

Date: 14 November 2025
Orbit: 834 x 851 km, 71.0° (Epoch: 12 December)

Event Time Altitude Azimuth Distance (km) Brightness Sun altitude
Rises 23:37:56 0° 322° (NW) 3,391 6.0 -36.2°
Reaches altitude 10° 23:40:51 10° 308° (NW) 2,452 5.3 -36.7°
Maximum altitude 23:45:05 23° 258° (WSW) 1,728 4.2 -37.4°
Enters shadow 23:46:22 21° 239° (WSW) 1,805 4.2 -37.6°
